This is the latest recevied weather packets stored in our database for station/object PE1BMM-13. If no packets are shown the sender has not sent any weather packets the latest 10 day(s).
| Time | Temp. | Humidity | Pressure | Rain* | Wind** | Luminosity | Snow |
|---|---|---|---|---|---|---|---|
| 1777943251 | 10.56° C | 89% | 1013.5 hPa | 0 mm | - | - | - |
| 1777939653 | 10.56° C | 88% | 1014.1 hPa | 0 mm | - | - | - |
| 1777936647 | 10.56° C | 88% | 1014.3 hPa | 0 mm | - | - | - |
| 1777936159 | 10.56° C | 88% | 1014.4 hPa | 0 mm | - | - | - |
| 1777933650 | 11.11° C | 88% | 1014.6 hPa | 0 mm | - | - | - |
| 1777931244 | 11.11° C | 87% | 1014.8 hPa | 0 mm | - | - | - |
| 1777925238 | 11.67° C | 88% | 1014.6 hPa | 0 mm | - | - | - |
| 1777923439 | 11.67° C | 88% | 1014.4 hPa | 0 mm | - | - | - |
| 1777922789 | 12.22° C | 88% | 1014.5 hPa | 0 mm | - | - | - |
| 1777917425 | 12.78° C | 88% | 1014.1 hPa | 0 mm | - | - | - |
| 1777914419 | 13.33° C | 87% | 1014.2 hPa | 0 mm | - | - | - |
| 1777913821 | 13.89° C | 86% | 1014.1 hPa | 0 mm | - | - | - |
| 1777912618 | 13.89° C | 86% | 1014.1 hPa | 0 mm | - | - | - |
| 1777909613 | 14.44° C | 85% | 1013.9 hPa | 0 mm | - | - | - |
| 1777909013 | 14.44° C | 85% | 1014 hPa | 0 mm | - | - | - |
| 1777907211 | 15° C | 85% | 1014 hPa | 0 mm | - | - | - |
| 1777904212 | 16.11° C | 85% | 1014.1 hPa | 0 mm | - | - | - |
| 1777903612 | 15.56° C | 86% | 1014.1 hPa | 0 mm | - | - | - |
| 1777900613 | 16.11° C | 86% | 1014.1 hPa | 0 mm | - | - | - |
| 1777898808 | 15.56° C | 90% | 1014.1 hPa | 0 mm | - | - | - |
| 1777895799 | 14.44° C | 94% | 1014 hPa | 0 mm | - | - | - |
| 1777895162 | 14.44° C | 93% | 1014.1 hPa | 0 mm | - | - | - |
| 1777894003 | 14.44° C | 93% | 1014.2 hPa | 0 mm | - | - | - |
| 1777889791 | 14.44° C | 94% | 1014.1 hPa | 0 mm | - | - | - |
| 1777888592 | 14.44° C | 95% | 1014 hPa | 0 mm | - | - | - |
* Rain latest hour (hover to see other rain measurements)
** Current wind speed in m/s (hover to see current wind gust speed)